Regional Weather Roundup
Issued by NWS Midland/Odessa, TX

Skip options and go directly to product.
Home | Oldest Version | Next Version | Current Version | All | Text Only | Save Text | Print | Product List | Glossary On

Skip product version selection by date and time.   
484
ASUS44 KMAF 240101
RWRMAF
MIDLAND AREA WEATHER ROUNDUP
NATIONAL WEATHER SERVICE MIDLAND TX
800 PM CDT MON MAY 23 2016

...IN SOUTHWEST TEXAS AND SOUTHEAST NEW MEXICO...

CITY           SKY/WX    TMP DP  RH WIND       PRES   REMARKS
ALPINE         CLEAR     90  23   8 W7        29.92S
ANDREWS        FAIR      92  29  10 SW10      29.76S
ARTESIA        SUNNY     90  21   8 SW21G28   29.76S
BIG SPRING     CLOUDY    80  67  64 SE18G28   29.77R
CARLSBAD       CLEAR     92  18   6 SW16      29.75R
DRYDEN         NOT AVBL
FORT STOCKTON  CLEAR     84  68  58 SE21G26   29.77R
GUAD PASS      NOT AVBL
HOBBS          CLEAR     90  16   6 SW15G21   29.78F
MARFA          CLEAR     86  25  11 CALM      29.91S
MIDLAND AIRPK  CLEAR     91  47  22 S15G21    29.76S
MIDLAND INTL   CLEAR     90  47  22 S16       29.75R
ODESSA         CLEAR     90  44  20 S15       29.76S
PECOS          CLEAR     97  25   7 W12       29.70F
PRESIDIO       FAIR      98  29   8 CALM      29.70F
SEMINOLE       CLEAR     90  32  12 SW5       29.77F
SNYDER           N/A     81  69  66 S16G25    29.81R
WINK           CLEAR     89  55  31 MISG      29.72R
$$
...OTHER STATIONS IN TEXAS...

CITY           SKY/WX    TMP DP  RH WIND       PRES   REMARKS
ABILENE        CLOUDY    78  71  79 SE20      29.79F
AMARILLO       CLEAR     83  45  26 S10       29.75F
AUSTIN         CLOUDY    80  73  79 SE13      29.82S
BROWNSVILLE    CLOUDY    82  75  79 SE13      29.80R
CORPUS CHRISTI LGT RAIN  81  75  82 SE17      29.81R
DALLAS FTW     CLOUDY    81  69  67 S12       29.81R
DEL RIO        CLOUDY    83  74  74 E16G22    29.72F
EL PASO        FAIR      90   9   5 W20G26    29.79F
HOUSTON INT    PTCLDY    77  68  73 SE15      29.88R
LUBBOCK        CLEAR     84  55  36 S18G25    29.76R
SAN ANGELO     CLEAR     82  70  66 SE13      29.78R
SAN ANTONIO    CLOUDY    80  73  79 SE18      29.83R
WACO           LGT RAIN  80  70  71 SE10      29.83R
WICHITA FALLS  NOT AVBL
$$
...OTHER LOCATIONS IN NEW MEXICO...

CITY           SKY/WX    TMP DP  RH WIND       PRES   REMARKS
ALAMAGORDO     SUNNY     86  18   8 SW12G21   29.83S
ALBUQUERQUE    MOSUNNY   82  11   7 SW17      29.82S
CANNON AFB     CLEAR     85  32  15 SW10      29.80F
CLOVIS         CLEAR     82  34  17 SW12      29.80S
HOLLOMAN AFB   SUNNY     88  14   6 SW12      29.80F
ROSWELL        SUNNY     92  17   6 W13       29.74S
RUIDOSO          N/A     72  18  13 SW17G25   30.01S
SANTA FE       SUNNY     75  18  11 SW10      29.89F
TRUTH OR CONSE SUNNY     83  12   7 W16G25    29.84R
TUCUMCARI      SUNNY     85  24  11 SW13      29.74S
$$

USA.gov is the U.S. government's official web portal to all federal, state and local government web resources and services.